| time (UTC) | temp F | wind direction | speed MPH | gust MPH | rain 1hr in | rain 24hr in | rain mn in | humidity % | barometer mb |
| 20260505124905 | 51 | 310 | 10.0 | 15.0 | 0.00 | 0.00 | 0.00 | 37 | 1007.1 |
| 20260505124631 | 51 | 269 | 6.0 | 15.0 | 0.00 | 0.00 | 0.00 | 36 | 1007.0 |
| 20260505123905 | 52 | 290 | 10.0 | 15.0 | 0.00 | 0.00 | 0.00 | 36 | 1007.1 |
| 20260505123401 | 52 | 296 | 8.0 | 13.0 | 0.00 | 0.00 | 0.00 | 34 | 1007.1 |
| 20260505122902 | 52 | 299 | 6.0 | 15.0 | 0.00 | 0.00 | 0.00 | 35 | 1007.0 |
| 20260505122626 | 52 | 298 | 8.0 | 15.0 | 0.00 | 0.00 | 0.00 | 35 | 1007.2 |
| 20260505121902 | 52 | 319 | 10.0 | 15.0 | 0.00 | 0.00 | 0.00 | 36 | 1007.0 |
| 20260505121402 | 52 | 313 | 7.0 | 14.0 | 0.00 | 0.00 | 0.00 | 36 | 1007.0 |
| 20260505120902 | 52 | 314 | 8.0 | 17.0 | 0.00 | 0.00 | 0.00 | 38 | 1006.9 |
| 20260505120620 | 51 | 329 | 8.0 | 17.0 | 0.00 | 0.00 | 0.00 | 38 | 1006.9 |
| 20260505115903 | 51 | 314 | 9.0 | 17.0 | 0.00 | 0.00 | 0.00 | 38 | 1007.0 |
| 20260505115623 | 51 | 309 | 8.0 | 17.0 | 0.00 | 0.00 | 0.00 | 39 | 1006.9 |
| 20260505114902 | 51 | 336 | 11.0 | 17.0 | 0.00 | 0.00 | 0.00 | 40 | 1006.9 |
| 20260505114402 | 51 | 303 | 9.0 | 21.0 | 0.00 | 0.00 | 0.00 | 42 | 1006.8 |
| 20260505114123 | 50 | 302 | 13.0 | 21.0 | 0.00 | 0.00 | 0.00 | 41 | 1006.9 |
| 20260505113623 | 51 | 319 | 11.0 | 16.0 | 0.00 | 0.00 | 0.00 | 39 | 1006.9 |
| 20260505112902 | 51 | 283 | 7.0 | 16.0 | 0.00 | 0.00 | 0.00 | 41 | 1007.0 |
| 20260505112402 | 51 | 327 | 7.0 | 16.0 | 0.00 | 0.00 | 0.00 | 41 | 1006.8 |
| 20260505112123 | 52 | 233 | 8.0 | 12.0 | 0.00 | 0.00 | 0.00 | 41 | 1006.9 |
| 20260505111403 | 51 | 323 | 6.0 | 14.0 | 0.00 | 0.00 | 0.00 | 42 | 1006.8 |
| 20260505110902 | 51 | 307 | 8.0 | 15.0 | 0.00 | 0.00 | 0.00 | 42 | 1006.8 |
| 20260505110402 | 52 | 306 | 9.0 | 16.0 | 0.00 | 0.00 | 0.00 | 42 | 1006.8 |
| 20260505101903 | 51 | 0 | 9.0 | 13.0 | 0.00 | 0.00 | 0.00 | 49 | 1006.5 |
| 20260505101403 | 51 | 331 | 5.0 | 12.0 | 0.00 | 0.00 | 0.00 | 52 | 1006.6 |
| 20260505100901 | 50 | 0 | 6.0 | 15.0 | 0.00 | 0.00 | 0.00 | 51 | 1006.5 |
| 20260505100402 | 50 | 3 | 8.0 | 15.0 | 0.00 | 0.00 | 0.00 | 54 | 1006.5 |
| 20260505095901 | 51 | 316 | 8.0 | 15.0 | 0.00 | 0.00 | 0.00 | 53 | 1006.4 |
| 20260505095402 | 50 | 6 | 6.0 | 15.0 | 0.00 | 0.00 | 0.00 | 53 | 1006.4 |
| 20260505095123 | 50 | 279 | 7.0 | 15.0 | 0.00 | 0.00 | 0.00 | 55 | 1006.3 |
| 20260505094403 | 49 | 298 | 9.0 | 15.0 | 0.00 | 0.00 | 0.00 | 54 | 1006.4 |
| 20260505093903 | 49 | 293 | 10.0 | 16.0 | 0.00 | 0.00 | 0.00 | 54 | 1006.4 |
| 20260505093402 | 49 | 283 | 11.0 | 16.0 | 0.00 | 0.00 | 0.00 | 55 | 1006.4 |
| 20260505092901 | 49 | 323 | 11.0 | 16.0 | 0.00 | 0.00 | 0.00 | 57 | 1006.4 |
| 20260505092402 | 49 | 271 | 5.0 | 15.0 | 0.00 | 0.00 | 0.00 | 55 | 1006.4 |
| 20260505091902 | 49 | 286 | 10.0 | 17.0 | 0.00 | 0.00 | 0.00 | 56 | 1006.3 |
| 20260505091402 | 49 | 321 | 12.0 | 17.0 | 0.00 | 0.00 | 0.00 | 56 | 1006.3 |
| 20260505090903 | 50 | 286 | 6.0 | 13.0 | 0.00 | 0.00 | 0.00 | 56 | 1006.3 |
| 20260505090403 | 49 | 347 | 6.0 | 13.0 | 0.00 | 0.00 | 0.00 | 61 | 1006.2 |
| 20260505085903 | 48 | 310 | 8.0 | 17.0 | 0.00 | 0.00 | 0.00 | 60 | 1006.3 |
| 20260505085622 | 48 | 278 | 8.0 | 17.0 | 0.00 | 0.00 | 0.00 | 60 | 1006.2 |
| 20260505085121 | 48 | 306 | 5.0 | 14.0 | 0.00 | 0.00 | 0.00 | 60 | 1006.1 |
| 20260505084403 | 48 | 275 | 10.0 | 15.0 | 0.00 | 0.00 | 0.00 | 60 | 1006.1 |
| 20260505083903 | 47 | 316 | 8.0 | 16.0 | 0.00 | 0.00 | 0.00 | 61 | 1006.1 |
| 20260505083630 | 48 | 303 | 10.0 | 16.0 | 0.00 | 0.00 | 0.00 | 60 | 1006.1 |
| 20260505082903 | 48 | 296 | 9.0 | 16.0 | 0.00 | 0.00 | 0.00 | 62 | 1006.1 |
| 20260505082403 | 48 | 324 | 11.0 | 16.0 | 0.00 | 0.00 | 0.00 | 62 | 1006.1 |
| 20260505081903 | 48 | 323 | 10.0 | 17.0 | 0.00 | 0.00 | 0.00 | 63 | 1006.0 |
| 20260505081403 | 47 | 293 | 12.0 | 17.0 | 0.00 | 0.00 | 0.00 | 62 | 1005.9 |
| 20260505081351 | 47 | 279 | 5.0 | 13.0 | 0.00 | 0.00 | 0.00 | 64 | 1005.8 |
| 20260505080621 | 47 | 298 | 9.0 | 17.0 | 0.00 | 0.00 | 0.00 | 63 | 1005.9 |
| 20260505075903 | 47 | 314 | 9.0 | 17.0 | 0.00 | 0.00 | 0.00 | 63 | 1005.7 |
| 20260505075404 | 47 | 296 | 7.0 | 14.0 | 0.00 | 0.00 | 0.00 | 65 | 1005.7 |
| 20260505074904 | 47 | 259 | 9.0 | 14.0 | 0.00 | 0.00 | 0.00 | 66 | 1005.7 |
| 20260505074404 | 47 | 316 | 6.0 | 14.0 | 0.00 | 0.00 | 0.00 | 67 | 1005.7 |
| 20260505073903 | 47 | 278 | 7.0 | 14.0 | 0.00 | 0.00 | 0.00 | 67 | 1005.7 |
| 20260505073620 | 46 | 303 | 6.0 | 13.0 | 0.00 | 0.00 | 0.00 | 68 | 1005.6 |
| 20260505072903 | 46 | 324 | 4.0 | 13.0 | 0.00 | 0.00 | 0.00 | 68 | 1005.6 |
| 20260505072404 | 47 | 300 | 7.0 | 13.0 | 0.00 | 0.00 | 0.00 | 67 | 1005.6 |
| 20260505072127 | 47 | 285 | 7.0 | 13.0 | 0.00 | 0.00 | 0.00 | 67 | 1005.5 |
| 20260505071403 | 47 | 298 | 6.0 | 9.0 | 0.00 | 0.00 | 0.00 | 72 | 1005.4 |
| 20260505070904 | 46 | 337 | 2.0 | 9.0 | 0.00 | 0.00 | 0.00 | 70 | 1005.4 |
| 20260505070403 | 46 | 306 | 4.0 | 9.0 | 0.00 | 0.00 | 0.00 | 71 | 1005.4 |
| 20260505065903 | 46 | 307 | 5.0 | 9.0 | 0.00 | 0.00 | 0.00 | 70 | 1005.3 |
| 20260505065402 | 46 | 303 | 4.0 | 12.0 | 0.00 | 0.00 | 0.00 | 70 | 1005.3 |
| 20260505065126 | 46 | 11 | 4.0 | 12.0 | 0.00 | 0.00 | 0.00 | 70 | 1005.3 |
| 20260505064403 | 46 | 285 | 5.0 | 10.0 | 0.00 | 0.00 | 0.00 | 72 | 1005.2 |
| 20260505063903 | 46 | 296 | 3.0 | 11.0 | 0.00 | 0.00 | 0.00 | 72 | 1005.2 |
| 20260505063404 | 46 | 323 | 5.0 | 13.0 | 0.00 | 0.00 | 0.00 | 72 | 1005.2 |
| 20260505062903 | 46 | 289 | 5.0 | 13.0 | 0.00 | 0.00 | 0.00 | 73 | 1005.1 |
| 20260505062403 | 46 | 321 | 7.0 | 13.0 | 0.00 | 0.00 | 0.00 | 71 | 1005.1 |
| 20260505061904 | 46 | 326 | 4.0 | 10.0 | 0.00 | 0.00 | 0.00 | 71 | 1005.0 |
| 20260505061404 | 46 | 341 | 4.0 | 11.0 | 0.00 | 0.00 | 0.00 | 73 | 1005.0 |
| 20260505060903 | 46 | 327 | 4.0 | 11.0 | 0.00 | 0.00 | 0.00 | 74 | 1005.0 |
| 20260505060404 | 45 | 329 | 6.0 | 9.0 | 0.00 | 0.00 | 0.00 | 76 | 1004.9 |
| 20260505055904 | 45 | 295 | 2.0 | 10.0 | 0.00 | 0.00 | 0.00 | 76 | 1004.9 |
| 20260505055625 | 45 | 354 | 6.0 | 12.0 | 0.00 | 0.00 | 0.00 | 76 | 1004.8 |
| 20260505054904 | 45 | 285 | 9.0 | 12.0 | 0.00 | 0.00 | 0.00 | 75 | 1004.6 |
| 20260505054404 | 46 | 290 | 6.0 | 10.0 | 0.00 | 0.00 | 0.00 | 74 | 1004.6 |
| 20260505053903 | 46 | 279 | 6.0 | 10.0 | 0.00 | 0.00 | 0.00 | 75 | 1004.5 |
| 20260505053404 | 46 | 298 | 4.0 | 10.0 | 0.00 | 0.00 | 0.00 | 74 | 1004.4 |
| 20260505052903 | 46 | 317 | 8.0 | 10.0 | 0.00 | 0.00 | 0.00 | 74 | 1004.3 |
| 20260505052851 | 46 | 276 | 4.0 | 12.0 | 0.00 | 0.00 | 0.00 | 74 | 1004.3 |
| 20260505051903 | 46 | 336 | 4.0 | 12.0 | 0.00 | 0.00 | 0.00 | 74 | 1004.2 |
| 20260505051403 | 46 | 323 | 6.0 | 11.0 | 0.00 | 0.00 | 0.00 | 74 | 1004.2 |
| 20260505050903 | 46 | 351 | 6.0 | 12.0 | 0.00 | 0.00 | 0.00 | 73 | 1004.1 |
| 20260505050403 | 46 | 298 | 7.0 | 14.0 | 0.00 | 0.00 | 0.00 | 73 | 1004.0 |
| 20260505041403 | 47 | 283 | 8.0 | 13.0 | 0.00 | 0.00 | 0.00 | 70 | 1003.6 |
| 20260505041127 | 47 | 330 | 9.0 | 12.0 | 0.00 | 0.00 | 0.00 | 76 | 1003.6 |
| 20260505040403 | 47 | 303 | 3.0 | 17.0 | 0.00 | 0.00 | 0.00 | 76 | 1003.6 |
| 20260505040058 | 47 | 302 | 4.0 | 17.0 | 0.00 | 0.00 | 0.00 | 76 | 1003.5 |
| 20260505034903 | 47 | 290 | 7.0 | 14.0 | 0.00 | 0.00 | 0.00 | 76 | 1003.4 |
| 20260505034402 | 47 | 289 | 7.0 | 14.0 | 0.00 | 0.00 | 0.00 | 76 | 1003.3 |
| 20260505033904 | 47 | 307 | 7.0 | 16.0 | 0.00 | 0.00 | 0.00 | 76 | 1003.3 |
| 20260505033404 | 47 | 298 | 5.0 | 16.0 | 0.00 | 0.00 | 0.00 | 76 | 1003.2 |
| 20260505032904 | 47 | 306 | 7.0 | 17.0 | 0.00 | 0.00 | 0.00 | 76 | 1003.2 |
| 20260505032403 | 47 | 295 | 7.0 | 17.0 | 0.00 | 0.00 | 0.00 | 75 | 1003.2 |
| 20260505031904 | 47 | 300 | 6.0 | 12.0 | 0.00 | 0.00 | 0.00 | 75 | 1003.1 |
| 20260505031628 | 47 | 274 | 7.0 | 15.0 | 0.00 | 0.00 | 0.00 | 75 | 1003.1 |
| 20260505031120 | 47 | 237 | 11.0 | 15.0 | 0.00 | 0.00 | 0.00 | 75 | 1003.1 |
| 20260505030403 | 47 | 289 | 7.0 | 14.0 | 0.00 | 0.00 | 0.00 | 75 | 1003.1 |
| 20260505025903 | 47 | 281 | 7.0 | 11.0 | 0.00 | 0.00 | 0.00 | 74 | 1003.0 |
| 20260505025402 | 47 | 288 | 6.0 | 20.0 | 0.00 | 0.00 | 0.00 | 74 | 1002.9 |
| 20260505024903 | 47 | 285 | 11.0 | 20.0 | 0.00 | 0.00 | 0.00 | 73 | 1002.9 |
| 20260505024403 | 47 | 329 | 5.0 | 15.0 | 0.00 | 0.00 | 0.00 | 73 | 1002.9 |
| 20260505023902 | 47 | 252 | 7.0 | 15.0 | 0.00 | 0.00 | 0.00 | 73 | 1002.8 |
| 20260505023403 | 47 | 303 | 4.0 | 13.0 | 0.00 | 0.00 | 0.00 | 72 | 1002.8 |
| 20260505022901 | 47 | 282 | 6.0 | 12.0 | 0.00 | 0.00 | 0.00 | 72 | 1002.8 |
| 20260505022402 | 47 | 295 | 6.0 | 12.0 | 0.00 | 0.00 | 0.00 | 71 | 1002.8 |
| 20260505021902 | 47 | 290 | 5.0 | 12.0 | 0.00 | 0.00 | 0.00 | 71 | 1002.8 |
| 20260505021401 | 47 | 279 | 9.0 | 12.0 | 0.00 | 0.00 | 0.00 | 70 | 1002.8 |
| 20260505021124 | 47 | 274 | 7.0 | 12.0 | 0.00 | 0.00 | 0.00 | 70 | 1002.7 |
| 20260505020402 | 47 | 261 | 8.0 | 13.0 | 0.00 | 0.00 | 0.00 | 69 | 1002.7 |
| 20260505015902 | 47 | 276 | 6.0 | 13.0 | 0.00 | 0.00 | 0.00 | 69 | 1002.6 |
| 20260505015402 | 47 | 330 | 6.0 | 12.0 | 0.00 | 0.00 | 0.00 | 68 | 1002.6 |
| 20260505014902 | 47 | 282 | 5.0 | 15.0 | 0.00 | 0.00 | 0.00 | 68 | 1002.5 |
| 20260505014622 | 47 | 265 | 7.0 | 17.0 | 0.00 | 0.00 | 0.00 | 67 | 1002.6 |
| 20260505013901 | 47 | 274 | 8.0 | 17.0 | 0.00 | 0.00 | 0.00 | 67 | 1002.6 |
| 20260505013402 | 47 | 268 | 6.0 | 13.0 | 0.00 | 0.00 | 0.00 | 66 | 1002.6 |
| 20260505012902 | 47 | 231 | 5.0 | 12.0 | 0.00 | 0.00 | 0.00 | 66 | 1002.5 |
| 20260505012402 | 47 | 295 | 5.0 | 13.0 | 0.00 | 0.00 | 0.00 | 65 | 1002.5 |
| 20260505011902 | 48 | 307 | 7.0 | 13.0 | 0.00 | 0.00 | 0.00 | 65 | 1002.6 |
| 20260505011402 | 48 | 295 | 4.0 | 13.0 | 0.00 | 0.00 | 0.00 | 64 | 1002.5 |
| 20260505010902 | 48 | 281 | 4.0 | 13.0 | 0.00 | 0.00 | 0.00 | 63 | 1002.5 |
| 20260505010401 | 48 | 279 | 7.0 | 13.0 | 0.00 | 0.00 | 0.00 | 63 | 1002.4 |
| 20260505005901 | 48 | 285 | 7.0 | 13.0 | 0.00 | 0.00 | 0.00 | 63 | 1002.5 |
| 20260505005402 | 47 | 295 | 4.0 | 13.0 | 0.00 | 0.00 | 0.00 | 63 | 1002.5 |
| 20260505004902 | 48 | 266 | 2.0 | 13.0 | 0.00 | 0.00 | 0.00 | 62 | 1002.4 |
| 20260505004621 | 48 | 269 | 5.0 | 11.0 | 0.00 | 0.00 | 0.00 | 62 | 1002.5 |
| 20260505003904 | 48 | 299 | 6.0 | 12.0 | 0.00 | 0.00 | 0.00 | 61 | 1002.5 |
| 20260505003403 | 48 | 257 | 5.0 | 12.0 | 0.00 | 0.00 | 0.00 | 61 | 1002.4 |
| 20260505002902 | 48 | 278 | 4.0 | 13.0 | 0.00 | 0.00 | 0.00 | 60 | 1002.5 |
| 20260505002402 | 48 | 252 | 8.0 | 13.0 | 0.00 | 0.00 | 0.00 | 60 | 1002.5 |
| 20260505001902 | 48 | 288 | 4.0 | 13.0 | 0.00 | 0.00 | 0.00 | 60 | 1002.5 |
| 20260505001402 | 48 | 272 | 5.0 | 9.0 | 0.00 | 0.00 | 0.00 | 60 | 1002.4 |
| 20260505000903 | 48 | 248 | 4.0 | 12.0 | 0.00 | 0.00 | 0.00 | 60 | 1002.4 |
| 20260505000623 | 48 | 269 | 3.0 | 12.0 | 0.00 | 0.00 | 0.00 | 59 | 1002.4 |
| 20260504235903 | 48 | 279 | 3.0 | 10.0 | 0.00 | 0.00 | 0.00 | 60 | 1002.5 |
| 20260504235403 | 48 | 288 | 6.0 | 12.0 | 0.00 | 0.00 | 0.00 | 59 | 1002.5 |
| 20260504234903 | 48 | 252 | 7.0 | 12.0 | 0.00 | 0.00 | 0.00 | 60 | 1002.5 |
| 20260504234402 | 48 | 257 | 4.0 | 12.0 | 0.00 | 0.00 | 0.00 | 59 | 1002.6 |
| 20260504234136 | 48 | 268 | 4.0 | 10.0 | 0.00 | 0.00 | 0.00 | 59 | 1002.6 |
| 20260504233404 | 48 | 271 | 4.0 | 10.0 | 0.00 | 0.00 | 0.00 | 60 | 1002.6 |
| 20260504232903 | 48 | 278 | 4.0 | 9.0 | 0.00 | 0.00 | 0.00 | 59 | 1002.5 |
| 20260504232403 | 48 | 290 | 4.0 | 10.0 | 0.00 | 0.00 | 0.00 | 59 | 1002.6 |
| 20260504231903 | 48 | 257 | 5.0 | 10.0 | 0.00 | 0.00 | 0.00 | 60 | 1002.7 |
| 20260504231840 | 48 | 240 | 4.0 | 7.0 | 0.00 | 0.00 | 0.00 | 61 | 1002.7 |
| 20260504230902 | 48 | 238 | 3.0 | 7.0 | 0.00 | 0.00 | 0.00 | 62 | 1002.7 |
| 20260504230403 | 48 | 252 | 4.0 | 6.0 | 0.00 | 0.00 | 0.00 | 62 | 1002.7 |
| 20260504225904 | 48 | 254 | 3.0 | 6.0 | 0.00 | 0.00 | 0.00 | 63 | 1002.7 |
| 20260504225404 | 48 | 251 | 4.0 | 6.0 | 0.00 | 0.00 | 0.00 | 63 | 1002.7 |
| 20260504224903 | 48 | 276 | 3.0 | 6.0 | 0.00 | 0.00 | 0.00 | 62 | 1002.8 |
| 20260504224843 | 48 | 241 | 2.0 | 4.0 | 0.00 | 0.00 | 0.00 | 62 | 1002.8 |
| 20260504223903 | 49 | 255 | 3.0 | 4.0 | 0.00 | 0.00 | 0.00 | 60 | 1002.9 |
| 20260504223403 | 49 | 254 | 2.0 | 4.0 | 0.00 | 0.00 | 0.00 | 59 | 1003.0 |
| 20260504222902 | 49 | 243 | 3.0 | 5.0 | 0.00 | 0.00 | 0.00 | 59 | 1003.0 |
| 20260504222403 | 49 | 251 | 3.0 | 6.0 | 0.00 | 0.00 | 0.00 | 59 | 1003.1 |
| 20260504222122 | 49 | 285 | 2.0 | 6.0 | 0.00 | 0.00 | 0.00 | 58 | 1003.0 |
| 20260504221403 | 50 | 262 | 4.0 | 6.0 | 0.00 | 0.00 | 0.00 | 58 | 1003.1 |
| 20260504220903 | 50 | 269 | 4.0 | 10.0 | 0.00 | 0.00 | 0.00 | 58 | 1003.1 |
| 20260504220403 | 50 | 241 | 4.0 | 10.0 | 0.00 | 0.00 | 0.00 | 59 | 1003.1 |
| 20260504220122 | 50 | 265 | 4.0 | 6.0 | 0.00 | 0.00 | 0.00 | 58 | 1003.2 |
| 20260504215402 | 49 | 266 | 4.0 | 7.0 | 0.00 | 0.00 | 0.00 | 60 | 1003.2 |
| 20260504215131 | 49 | 257 | 5.0 | 7.0 | 0.00 | 0.00 | 0.00 | 60 | 1003.2 |
| 20260504214402 | 49 | 259 | 3.0 | 5.0 | 0.00 | 0.00 | 0.00 | 60 | 1003.2 |
| 20260504213902 | 50 | 266 | 4.0 | 5.0 | 0.00 | 0.00 | 0.00 | 60 | 1003.2 |
| 20260504213402 | 50 | 261 | 3.0 | 5.0 | 0.00 | 0.00 | 0.00 | 60 | 1003.2 |
| 20260504212903 | 50 | 252 | 2.0 | 7.0 | 0.00 | 0.00 | 0.00 | 60 | 1003.3 |
| 20260504212402 | 50 | 248 | 3.0 | 7.0 | 0.00 | 0.00 | 0.00 | 60 | 1003.2 |
| 20260504211902 | 50 | 306 | 3.0 | 6.0 | 0.00 | 0.00 | 0.00 | 60 | 1003.3 |
| 20260504211403 | 51 | 265 | 2.0 | 6.0 | 0.00 | 0.00 | 0.00 | 60 | 1003.3 |
| 20260504210903 | 51 | 279 | 2.0 | 5.0 | 0.00 | 0.00 | 0.00 | 59 | 1003.4 |
| 20260504210402 | 51 | 266 | 3.0 | 4.0 | 0.00 | 0.00 | 0.00 | 60 | 1003.3 |
| 20260504210128 | 51 | 285 | 2.0 | 5.0 | 0.00 | 0.00 | 0.00 | 60 | 1003.3 |
| 20260504205402 | 51 | 281 | 3.0 | 11.0 | 0.00 | 0.00 | 0.00 | 60 | 1003.4 |
| 20260504204902 | 51 | 259 | 5.0 | 11.0 | 0.00 | 0.00 | 0.00 | 61 | 1003.3 |
| 20260504204402 | 51 | 283 | 3.0 | 7.0 | 0.00 | 0.00 | 0.00 | 62 | 1003.3 |
| 20260504204344 | 51 | 283 | 3.0 | 7.0 | 0.00 | 0.00 | 0.00 | 63 | 1003.3 |
| 20260504203844 | 51 | 230 | 3.0 | 7.0 | 0.00 | 0.00 | 0.00 | 64 | 1003.3 |
| 20260504202902 | 51 | 269 | 2.0 | 5.0 | 0.00 | 0.00 | 0.00 | 64 | 1003.3 |
| 20260504202402 | 51 | 266 | 3.0 | 5.0 | 0.00 | 0.00 | 0.00 | 64 | 1003.3 |
| 20260504201904 | 51 | 261 | 2.0 | 5.0 | 0.00 | 0.00 | 0.00 | 64 | 1003.3 |
| 20260504201404 | 51 | 309 | 3.0 | 5.0 | 0.00 | 0.00 | 0.00 | 64 | 1003.2 |
| 20260504200903 | 51 | 248 | 3.0 | 5.0 | 0.00 | 0.00 | 0.00 | 65 | 1003.3 |
| 20260504200852 | 51 | 303 | 2.0 | 5.0 | 0.00 | 0.00 | 0.00 | 65 | 1003.2 |
| 20260504195902 | 51 | 257 | 3.0 | 5.0 | 0.00 | 0.00 | 0.00 | 64 | 1003.3 |
| 20260504195403 | 52 | 265 | 2.0 | 4.0 | 0.00 | 0.00 | 0.00 | 64 | 1003.2 |
| 20260504194903 | 52 | 259 | 2.0 | 4.0 | 0.00 | 0.00 | 0.00 | 64 | 1003.2 |
| 20260504194405 | 52 | 248 | 2.0 | 4.0 | 0.00 | 0.00 | 0.00 | 65 | 1003.2 |
| 20260504193905 | 52 | 275 | 2.0 | 4.0 | 0.00 | 0.00 | 0.00 | 64 | 1003.1 |
| 20260504193403 | 52 | 265 | 2.0 | 4.0 | 0.00 | 0.00 | 0.00 | 64 | 1003.1 |
| 20260504192904 | 52 | 254 | 1.0 | 6.0 | 0.00 | 0.00 | 0.00 | 64 | 1003.2 |
| 20260504192404 | 53 | 261 | 2.0 | 6.0 | 0.00 | 0.00 | 0.00 | 64 | 1003.1 |
| 20260504191903 | 53 | 268 | 2.0 | 4.0 | 0.00 | 0.00 | 0.00 | 64 | 1003.1 |
| 20260504191405 | 53 | 272 | 2.0 | 3.0 | 0.00 | 0.00 | 0.00 | 64 | 1003.0 |
| 20260504190904 | 53 | 305 | 2.0 | 6.0 | 0.00 | 0.00 | 0.00 | 63 | 1003.0 |
| 20260504190405 | 54 | 281 | 4.0 | 6.0 | 0.00 | 0.00 | 0.00 | 63 | 1003.1 |
| 20260504185904 | 54 | 274 | 3.0 | 5.0 | 0.00 | 0.00 | 0.00 | 63 | 1003.1 |
| 20260504185403 | 54 | 269 | 2.0 | 6.0 | 0.00 | 0.00 | 0.00 | 63 | 1003.1 |
| 20260504185133 | 54 | 266 | 4.0 | 6.0 | 0.00 | 0.00 | 0.00 | 63 | 1003.1 |
| 20260504184404 | 54 | 276 | 2.0 | 6.0 | 0.00 | 0.00 | 0.00 | 64 | 1003.0 |
| 20260504183904 | 54 | 286 | 2.0 | 6.0 | 0.00 | 0.00 | 0.00 | 63 | 1003.1 |
| 20260504183403 | 55 | 298 | 2.0 | 7.0 | 0.00 | 0.00 | 0.00 | 63 | 1003.1 |
| 20260504183129 | 55 | 275 | 5.0 | 7.0 | 0.00 | 0.00 | 0.00 | 63 | 1003.1 |
| 20260504182403 | 55 | 276 | 3.0 | 7.0 | 0.00 | 0.00 | 0.00 | 62 | 1003.0 |
| 20260504181903 | 55 | 285 | 3.0 | 7.0 | 0.00 | 0.00 | 0.00 | 62 | 1003.1 |
| 20260504181403 | 55 | 296 | 4.0 | 5.0 | 0.00 | 0.00 | 0.00 | 62 | 1003.0 |
| 20260504180903 | 55 | 274 | 3.0 | 10.0 | 0.00 | 0.00 | 0.00 | 62 | 1003.0 |
| 20260504180403 | 56 | 296 | 5.0 | 10.0 | 0.00 | 0.00 | 0.00 | 61 | 1003.0 |
| 20260504180123 | 56 | 303 | 4.0 | 9.0 | 0.00 | 0.00 | 0.00 | 62 | 1002.9 |
| 20260504175403 | 55 | 319 | 6.0 | 10.0 | 0.00 | 0.00 | 0.00 | 62 | 1002.9 |
| 20260504174903 | 55 | 300 | 4.0 | 10.0 | 0.00 | 0.00 | 0.00 | 61 | 1002.9 |
| 20260504174403 | 56 | 296 | 4.0 | 11.0 | 0.00 | 0.00 | 0.00 | 61 | 1002.9 |
| 20260504173904 | 56 | 285 | 5.0 | 13.0 | 0.00 | 0.00 | 0.00 | 60 | 1002.8 |
| 20260504173403 | 56 | 288 | 6.0 | 13.0 | 0.00 | 0.00 | 0.00 | 59 | 1002.8 |
| 20260504172903 | 56 | 275 | 5.0 | 10.0 | 0.00 | 0.00 | 0.00 | 59 | 1002.8 |
| 20260504172403 | 57 | 303 | 7.0 | 13.0 | 0.00 | 0.00 | 0.00 | 58 | 1002.8 |
| 20260504171903 | 57 | 310 | 6.0 | 16.0 | 0.00 | 0.00 | 0.00 | 57 | 1002.8 |
| 20260504171403 | 57 | 289 | 11.0 | 16.0 | 0.00 | 0.00 | 0.00 | 58 | 1002.7 |
| 20260504170904 | 57 | 298 | 7.0 | 15.0 | 0.00 | 0.00 | 0.00 | 57 | 1002.7 |
| 20260504170403 | 57 | 258 | 7.0 | 16.0 | 0.00 | 0.00 | 0.00 | 56 | 1002.7 |
| 20260504160404 | 59 | 238 | 5.0 | 12.0 | 0.00 | 0.00 | 0.00 | 65 | 1002.0 |
| 20260504150903 | 58 | 195 | 4.0 | 10.0 | 0.00 | 0.00 | 0.00 | 74 | 1001.6 |
| 20260504150403 | 58 | 248 | 5.0 | 11.0 | 0.00 | 0.00 | 0.00 | 74 | 1001.6 |
| 20260504140903 | 57 | 202 | 6.0 | 10.0 | 0.00 | 0.00 | 0.00 | 75 | 1001.9 |
| 20260504140621 | 57 | 265 | 5.0 | 10.0 | 0.00 | 0.00 | 0.00 | 76 | 1001.9 |
| 20260504130403 | 56 | 183 | 7.0 | 10.0 | 0.00 | 0.00 | 0.00 | 79 | 1002.3 |